McGrath, AK

5:23 AM AKST on February 22, 2017 (GMT -0900)
McGrath

Weather History for PAMC - July, 2013

Change the Weather History Date:

Saturday, July 27, 2013

  Actual Average Record
Temperature  
Mean Temperature 68 °F 59 °F  
Max Temperature 85 °F 67 °F 86 °F (1953)
Min Temperature 51 °F 50 °F 36 °F (2014)
Degree Days  
Heating Degree Days 0    
Month to date heating degree days 165 144  
Since 1 June heating degree days 300 378  
Since 1 July heating degree days 165 144  
Cooling Degree Days 3    
Month to date cooling degree days 7 11  
Year to date cooling degree days 67 16  
Since 1 June cooling degree days 58 16  
Growing Degree Days 18 (Base 50)    
Moisture  
Dew Point 56 °F    
Average Humidity 0    
Maximum Humidity 0    
Minimum Humidity 0    
Precipitation  
Precipitation 0.00 in 0.09 in 1.45 in (2003)
Month to date precipitation 1.90 2.03  
Year to date precipitation 6.62 8.22  
Snow  
Snow 0.00 in 0.00 in 0.00 in (2016)
Month to date snowfall 0.0 0.0  
Since 1 June snowfall 0.0 0.0  
Since 1 July snowfall 0.0 0.0  
Snow Depth 0.00 in    
Sea Level Pressure  
Sea Level Pressure 30.26 in    
Wind  
Wind Speed 1 mph (SW)    
Max Wind Speed 7 mph    
Max Gust Speed 9 mph    
Visibility 10 miles    
Events      
T = Trace of Precipitation, MM = Missing Value Source: NWS Daily Summary

Daily Weather History Graph

Daily Weather History Graph

Search for Another Location

Airport or City:

Trip Planner

Search our weather history database for the weather conditions in past years. The results will help you decide how hot, cold, wet, or windy it might be!

Date:

Astronomy

Jul. 27, 2013 Rise Set
Actual Time 5:27 AM AKDT 11:28 PM AKDT
Civil Twilight 4:00 AM AKDT 12:52 AM AKDT
Nautical Twilight Sun does not rise Sun does not rise
Astronomical Twilight Sun does not rise Sun does not rise
Moon 11:50 PM AKDT (7/27) 1:44 PM AKDT (7/27)
Length of Visible Light 20h 52m
Length of Day
18h 00m
Waning Gibbous, 69% of the Moon is Illuminated
Jul 27
Waning Gibbous
Jul 29
Last Quarter
Aug 6
New
Aug 14
First Quarter
Aug 20
Full

Hourly Weather History & Observations

Time (AKDT) Temp. Heat Index Dew Point Humidity Pressure Visibility Wind Dir Wind Speed Gust Speed Precip Events Conditions
12:53 AM 60.1 °F - 57.0 °F 90% 30.25 in 10.0 mi West 3.5 mph - N/A   Scattered Clouds
1:53 AM 57.9 °F - 55.9 °F 93% 30.26 in 10.0 mi Calm Calm - N/A   Scattered Clouds
2:53 AM 59.0 °F - 55.0 °F 87% 30.27 in 10.0 mi West 4.6 mph - N/A   Scattered Clouds
3:53 AM 55.9 °F - 53.1 °F 90% 30.27 in 10.0 mi Calm Calm - N/A   Scattered Clouds
4:53 AM 53.1 °F - 51.1 °F 93% 30.27 in 10.0 mi Calm Calm - N/A   Scattered Clouds
5:53 AM 53.1 °F - 50.0 °F 89% 30.29 in 10.0 mi Calm Calm - N/A   Scattered Clouds
6:53 AM 53.1 °F - 51.1 °F 93% 30.30 in 10.0 mi Calm Calm - N/A   Scattered Clouds
7:53 AM 55.0 °F - 52.0 °F 89% 30.30 in 10.0 mi Calm Calm - N/A   Scattered Clouds
8:53 AM 62.1 °F - 55.0 °F 78% 30.30 in 10.0 mi Calm Calm - N/A   Clear
9:53 AM 64.9 °F - 55.0 °F 70% 30.30 in 10.0 mi Calm Calm - N/A   Scattered Clouds
10:53 AM 71.1 °F - 57.9 °F 63% 30.30 in 10.0 mi Calm Calm - N/A   Scattered Clouds
11:53 AM 75.0 °F - 57.0 °F 53% 30.30 in 10.0 mi Calm Calm - N/A   Scattered Clouds
12:53 PM 78.1 °F - 57.9 °F 50% 30.29 in 10.0 mi Calm Calm - N/A   Scattered Clouds
1:53 PM 81.0 °F 81.1 °F 57.9 °F 45% 30.29 in 10.0 mi Variable 3.5 mph - N/A   Scattered Clouds
2:53 PM 81.0 °F 80.8 °F 55.9 °F 42% 30.27 in 10.0 mi SSW 3.5 mph - N/A   Scattered Clouds
3:53 PM 82.0 °F 81.4 °F 55.0 °F 39% 30.26 in 10.0 mi Calm Calm - N/A   Scattered Clouds
4:53 PM 82.9 °F 81.9 °F 54.0 °F 37% 30.25 in 10.0 mi SSE 3.5 mph - N/A   Scattered Clouds
5:53 PM 84.0 °F 82.5 °F 53.1 °F 34% 30.23 in 10.0 mi Calm Calm - N/A   Clear
6:53 PM 82.9 °F 82.4 °F 57.0 °F 41% 30.22 in 10.0 mi Calm Calm - N/A   Clear
7:53 PM 82.0 °F 81.4 °F 55.0 °F 39% 30.22 in 10.0 mi Calm Calm - N/A   Clear
8:53 PM 81.0 °F 80.4 °F 53.1 °F 38% 30.21 in 10.0 mi Calm Calm - N/A   Clear
9:53 PM 73.9 °F - 64.9 °F 73% 30.21 in 10.0 mi Calm Calm - N/A   Clear
10:53 PM 68.0 °F - 63.0 °F 84% 30.21 in 10.0 mi Calm Calm - N/A   Clear
11:53 PM 64.0 °F - 60.1 °F 87% 30.22 in 10.0 mi Calm Calm - N/A   Clear